Вернуться в каталог

LIBERTAD 1

АктивенЛюбительское радиоSSO
NORAD 31128·PAYLOAD·🇨🇴 Colombia

Запущен Apr 17, 2007 с Baikonur Cosmodrome

Loading…

Ближайшие Пролёты (ближайшие 24 часа)

TLE

СвежийSource: Space-Track

Эпоха: Sep 14, 2026, 03:23 UTC

1 31128U 07012M   26257.14134678  .00000646  00000-0  12716-3 0  9997
2 31128  98.4497 229.3019 0084865 162.4064 198.0109 14.63936936 31280

Отслеживайте LIBERTAD 1 в реальном времени с AllMySat

Download on the App Store